GEFSMA_500_meanwind_342.txt.gz
Wind_Speed
36 37 37 38 38 38 38 38 38 37 37 37 37 37 37 37 38 38 38 38 38 38 39 39 39 39 38 38 38 38 38 38 38 38 38 38 38 38 38 39 39 39 40
38 38 38 39 39 39 39 39 39 39 39 39 39 39 39 39 40 40 40 40 40 40 41 41 41 41 40 40 40 40 40 40 40 40 40 40 39 39 39 39 40 40 41
39 40 40 40 41 41 42 42 41 41 41 41 41 41 41 41 42 42 42 42 42 42 42 43 43 42 42 42 42 41 41 41 41 41 40 40 40 40 40 40 40 40 41
41 42 42 42 42 42 43 43 43 43 43 43 43 43 44 43 43 43 44 44 44 44 44 43 43 44 44 44 43 43 42 42 42 42 42 42 41 41 41 42 42 42 42
42 43 43 44 44 44 44 44 44 45 44 45 45 45 45 45 45 45 45 45 46 46 45 45 45 45 45 45 45 45 44 43 43 44 44 43 43 43 43 43 43 43 43
44 44 45 45 46 46 46 46 47 46 46 46 47 46 46 46 46 47 46 46 46 46 46 46 46 46 46 46 46 46 46 46 46 46 46 45 46 45 46 45 45 44 44
45 45 45 46 46 47 47 48 48 48 48 48 48 48 48 48 47 47 47 48 48 47 47 47 47 47 48 48 47 48 48 48 48 48 48 48 48 48 47 47 47 46 47
47 47 47 47 47 47 47 48 48 48 49 49 49 49 48 48 49 48 49 49 49 49 49 49 49 50 49 50 49 49 50 50 50 50 50 50 50 50 49 49 49 49 49
48 48 48 47 48 48 48 48 49 49 49 49 50 50 50 50 50 49 49 49 49 49 50 50 50 50 50 51 51 51 51 51 51 51 51 51 51 51 51 50 50 50 50
49 49 49 48 48 49 49 49 50 50 50 50 50 51 51 51 51 50 50 50 50 50 51 51 51 51 51 51 51 51 51 51 51 51 51 51 50 50 50 50 51 51 51
48 48 48 48 49 49 49 50 50 50 50 50 50 51 51 51 51 51 51 51 51 51 52 52 52 51 51 51 51 51 51 51 51 51 52 51 51 51 51 51 51 51 51
47 48 48 49 49 49 50 50 50 51 51 51 52 52 52 52 52 52 52 52 51 51 52 52 52 52 52 52 52 51 51 51 51 52 52 52 52 52 52 51 51 52 52
47 47 48 49 50 50 50 50 51 51 51 52 52 53 53 53 53 54 54 53 53 52 52 52 53 53 53 53 52 52 51 51 52 52 52 52 52 52 52 53 52 52 52
46 47 48 48 49 50 51 50 51 51 51 52 52 52 53 53 54 55 55 55 55 54 53 52 53 53 53 53 52 52 52 53 52 52 52 53 52 52 52 53 52 52 52
45 46 47 47 47 48 49 50 50 51 51 51 51 52 53 53 54 54 55 55 55 54 53 52 52 52 52 52 53 53 53 53 53 53 53 53 53 52 52 52 51 51 51
45 45 46 47 47 48 49 50 51 51 52 52 52 53 54 55 55 55 55 55 54 54 53 51 51 52 52 52 53 53 52 52 52 52 52 52 52 51 51 51 52 51 50
43 44 45 46 46 47 48 49 51 52 53 53 54 54 55 55 54 54 53 53 53 53 53 51 51 52 52 52 52 52 52 51 51 51 51 50 50 49 50 50 50 50 49
40 41 42 43 44 45 47 48 49 50 51 52 53 54 54 53 52 52 51 52 52 53 52 51 51 51 51 52 51 51 51 51 50 50 49 49 48 48 48 48 48 48 48
39 39 40 41 42 43 44 44 45 47 48 49 50 50 50 50 49 50 50 50 50 51 51 50 50 50 50 50 50 50 50 49 49 49 48 48 47 47 47 46 46 46 46
38 39 40 40 40 41 42 42 43 44 45 46 47 47 47 47 47 48 48 48 49 49 49 48 48 48 48 48 49 48 48 48 48 47 47 47 47 46 45 45 44 44 44
38 38 39 39 39 40 40 40 41 42 43 43 43 44 45 45 46 46 46 47 46 46 47 47 47 47 47 47 47 46 46 46 46 46 45 45 45 44 44 43 43 43 43
37 37 37 37 38 38 38 39 40 40 41 41 41 42 42 43 43 43 44 44 45 45 46 46 46 45 45 45 44 44 44 44 43 43 43 42 42 41 41 41 41 42 41
34 34 35 36 36 36 37 37 37 38 39 39 39 39 40 40 40 40 41 42 43 44 44 44 44 43 43 43 42 41 41 40 40 39 39 39 39 38 38 38 38 39 39
33 33 33 34 34 34 35 36 36 36 36 36 37 37 37 37 38 38 39 39 40 41 41 41 41 40 40 40 40 40 39 38 37 37 37 36 36 36 36 36 36 35 35
31 32 32 32 31 32 33 33 33 34 34 34 34 34 34 34 35 35 35 36 36 36 37 37 37 37 37 36 37 36 36 36 35 34 34 34 33 33 33 33 33 33 32
29 30 30 30 31 31 32 32 32 31 31 32 32 32 32 32 32 33 33 33 32 33 33 34 35 35 34 33 34 34 34 34 34 33 32 32 30 30 30 30 30 30 30

GEFSMA_500_meanwind_348.txt.gz
Wind_Speed
34 35 35 36 36 37 37 37 37 37 37 37 37 37 37 38 38 38 37 37 37 37 38 38 38 38 38 38 38 39 39 39 39 39 39 39 39 39 39 38 38 38 38
36 36 37 37 37 38 39 39 39 39 39 39 39 39 39 39 40 40 40 40 40 40 40 40 40 40 40 40 39 40 40 40 40 40 40 40 40 40 40 40 40 40 40
38 38 38 39 39 39 39 40 41 41 40 40 41 41 41 41 41 42 42 42 42 42 42 42 42 42 41 41 41 41 41 41 42 42 41 41 41 41 41 41 41 41 41
39 40 40 40 41 41 41 41 41 42 42 42 43 43 43 43 44 44 44 44 44 45 45 44 44 43 43 43 43 43 43 43 43 43 42 42 43 43 42 42 42 43 43
41 41 41 42 43 43 43 44 44 44 44 44 45 45 45 45 46 45 45 45 45 46 46 46 45 45 45 45 45 45 45 45 44 44 44 44 44 44 44 45 45 45 44
43 42 42 43 43 43 44 45 46 46 47 47 47 47 48 48 48 48 48 48 47 47 47 47 47 47 47 48 48 47 46 46 46 46 46 46 46 46 46 46 46 46 46
44 44 44 44 45 45 45 46 47 48 49 49 49 49 49 49 49 50 50 50 49 49 48 48 49 49 49 49 49 48 48 48 48 48 48 48 48 48 47 47 47 47 47
45 45 46 46 46 47 47 48 48 49 50 50 50 50 50 50 51 51 51 50 50 50 50 50 50 50 50 50 50 49 49 48 48 49 49 49 49 49 49 50 49 49 48
47 47 47 48 48 48 49 49 49 49 50 50 51 51 51 51 51 51 51 51 51 51 51 51 51 51 51 51 51 51 51 50 50 50 50 50 50 50 50 50 50 50 50
47 48 48 48 48 49 49 50 50 50 51 51 52 52 52 52 52 51 50 51 52 52 52 52 51 51 51 52 52 51 51 51 52 52 52 51 51 51 52 52 51 51 51
47 48 48 48 48 49 49 50 51 51 51 52 52 53 53 53 53 53 52 52 52 52 53 53 53 53 52 52 52 52 52 52 52 52 52 52 52 52 52 52 52 52 52
48 48 49 49 49 49 50 50 51 51 51 52 52 53 54 54 54 54 54 53 52 53 53 53 54 54 54 53 52 52 53 53 52 52 52 52 52 52 52 52 53 53 53
48 49 49 49 49 49 50 50 49 50 51 51 51 52 53 54 55 55 55 55 55 54 54 54 54 54 54 54 54 54 54 54 53 53 53 53 52 52 52 52 53 53 53
47 47 47 47 47 47 48 48 48 49 50 50 51 51 51 52 53 54 54 55 55 54 54 54 54 55 55 55 55 54 54 54 54 54 53 53 53 52 52 53 53 53 53
46 46 45 46 46 47 47 48 48 49 49 50 51 51 51 51 52 53 53 54 54 54 53 53 54 54 55 55 55 54 54 54 54 54 54 53 53 53 53 53 52 52 52
44 45 46 46 47 47 48 48 48 49 49 49 49 50 51 51 51 51 52 52 53 53 51 50 52 53 54 54 54 54 54 54 55 55 54 54 53 53 53 52 52 52 51
43 43 44 45 45 46 46 47 47 47 48 48 48 49 49 50 50 50 51 51 51 51 51 49 49 50 50 51 52 53 54 54 54 54 54 53 53 53 53 53 52 52 51
43 43 43 43 43 44 44 45 46 46 47 47 47 47 47 48 48 48 49 50 50 50 49 48 47 48 49 50 51 51 52 52 52 51 52 52 52 52 52 52 52 51 51
42 42 43 42 42 43 43 44 45 45 45 45 45 46 46 46 46 46 47 47 48 48 49 48 48 48 48 48 49 49 49 49 49 49 49 50 50 50 50 49 49 49 49
41 41 41 41 41 42 42 43 43 44 44 43 44 44 45 44 45 45 46 46 46 47 47 48 47 47 46 46 46 45 45 45 46 46 47 47 47 47 47 46 46 46 46
39 39 39 40 40 41 41 41 41 42 42 42 42 43 43 44 44 44 45 45 46 46 46 46 46 45 45 45 44 44 43 43 44 44 44 44 44 43 43 43 43 43 43
37 38 38 38 39 39 40 40 39 39 39 40 40 41 42 42 42 43 44 44 44 44 44 44 44 44 44 44 44 44 43 42 41 41 42 41 41 41 40 41 41 40 40
36 36 37 37 37 38 38 39 39 38 38 39 39 39 39 39 40 40 41 41 41 42 42 42 42 42 42 42 42 42 42 41 40 40 39 38 38 38 38 38 38 38 38
35 35 35 36 36 37 37 37 36 37 36 36 36 37 37 37 37 38 38 38 38 39 40 40 40 39 40 41 41 41 40 39 39 38 38 37 36 36 35 36 35 35 35
33 34 34 34 35 35 35 34 34 34 34 34 34 35 35 36 36 36 36 36 36 37 37 37 37 37 38 38 38 38 38 37 37 36 37 36 35 34 34 34 33 33 32
31 32 32 33 33 33 33 33 32 32 31 32 32 33 33 33 33 34 34 34 34 34 35 35 36 37 37 37 36 36 36 36 35 34 34 34 33 33 32 32 31 30 29

GEFSMA_500_meanwind_354.txt.gz
Wind_Speed
33 33 33 33 33 33 34 35 36 36 36 36 36 36 37 38 38 38 37 38 38 38 38 38 38 38 38 38 38 38 38 38 38 38 38 38 38 38 39 39 38 38 38
35 35 36 36 36 36 36 36 37 38 38 38 37 38 39 40 40 40 40 40 40 41 41 40 41 40 40 40 40 40 40 39 39 39 39 39 39 39 39 39 39 39 39
37 38 38 38 38 38 38 37 37 38 39 40 40 40 41 41 42 43 43 43 43 43 43 43 43 42 42 42 42 42 42 41 41 41 40 40 40 40 41 40 40 40 40
39 39 39 39 39 39 39 39 39 40 41 42 43 43 43 43 44 44 45 45 45 45 45 46 46 45 44 45 44 44 43 44 43 43 42 42 42 42 42 42 42 42 42
39 40 39 39 40 40 40 40 41 42 43 44 45 45 46 46 46 46 47 47 47 47 48 48 48 47 47 46 46 46 45 46 45 45 45 44 44 44 44 44 44 44 44
40 40 40 40 41 41 41 42 42 43 44 45 46 47 48 48 48 49 49 49 49 49 49 49 49 48 48 48 48 48 47 47 47 47 46 46 46 46 46 46 46 46 45
41 41 40 41 42 42 43 43 44 45 45 46 46 47 48 49 50 50 50 50 50 51 50 50 49 49 49 49 49 49 49 49 48 48 48 48 47 47 47 47 48 48 47
41 41 40 41 42 43 43 43 44 45 45 45 46 47 48 49 50 51 52 52 52 52 52 52 51 51 51 51 51 50 50 50 50 50 50 49 49 49 49 49 49 49 49
42 42 42 42 43 43 43 44 44 44 45 46 47 48 49 50 51 51 52 53 53 53 53 53 53 53 53 52 52 52 52 52 52 52 52 52 52 52 52 51 51 51 51
43 43 43 44 44 44 45 45 45 46 46 47 48 49 50 50 50 50 51 52 53 53 53 53 53 53 52 52 52 53 53 53 53 53 54 54 54 54 54 54 54 53 53
44 45 45 46 46 46 46 47 48 49 48 48 48 49 49 49 50 51 51 52 53 53 53 53 53 52 52 52 52 52 52 53 54 54 55 55 55 55 55 55 55 55 55
46 46 46 47 47 47 48 49 49 49 49 49 48 49 50 50 51 51 51 52 53 53 54 54 55 54 54 54 53 53 53 53 54 54 55 55 56 56 56 56 56 55 55
45 46 46 46 47 48 48 48 48 48 49 49 50 50 50 50 51 51 52 52 53 53 54 55 55 55 55 55 54 54 54 54 55 54 54 55 56 55 55 56 56 55 55
46 46 46 46 47 47 47 48 48 49 49 49 49 50 50 51 51 51 52 53 53 53 54 54 54 55 55 55 55 55 55 54 55 55 54 54 54 54 54 54 54 54 54
45 46 46 47 47 47 47 47 48 48 48 48 49 49 49 50 50 51 51 52 53 53 52 53 54 54 54 54 54 54 54 54 54 54 54 53 53 52 52 52 52 52 52
43 44 45 45 46 46 46 47 47 47 47 47 47 48 48 49 49 50 50 51 51 51 50 50 51 51 51 52 52 53 52 52 52 53 53 53 52 52 51 51 50 50 50
42 43 43 43 44 44 45 46 46 46 46 47 48 48 49 49 49 49 49 49 49 48 47 46 46 47 48 49 50 51 51 52 52 52 52 51 51 51 50 49 49 50 50
40 41 41 42 42 43 43 44 44 45 46 46 47 48 48 48 48 48 47 47 46 46 46 44 44 45 46 48 49 50 51 51 51 51 50 49 49 49 48 48 48 48 48
39 40 41 41 41 42 42 43 44 44 44 44 44 45 45 46 46 46 45 44 44 44 44 44 44 45 46 47 48 49 49 50 49 49 48 48 47 47 47 46 46 46 46
38 39 39 40 40 41 41 42 41 41 42 42 42 42 43 43 43 43 43 43 43 43 43 43 44 45 46 47 47 47 47 47 47 47 47 47 46 46 45 45 44 43 43
37 37 38 39 39 40 40 39 39 39 40 40 41 41 40 40 40 41 41 41 42 42 42 43 43 44 45 46 46 46 45 45 45 45 45 45 45 45 44 43 42 41 41
36 36 37 37 38 38 38 38 38 38 38 39 39 39 38 38 39 39 39 40 41 41 42 42 43 43 43 44 43 43 42 42 42 43 43 43 43 42 41 41 40 40 39
35 35 36 36 36 36 36 36 36 37 37 37 36 36 36 37 38 38 37 38 38 39 39 40 39 40 40 40 41 40 40 40 41 41 41 41 41 40 39 38 38 38 38
33 34 34 34 34 34 34 34 35 35 35 35 35 35 35 35 36 35 35 35 36 37 37 37 37 37 37 38 38 38 39 39 39 39 39 39 39 38 37 36 36 36 35
32 32 32 32 32 33 33 33 33 33 33 34 33 33 33 34 34 34 34 34 34 34 35 35 35 35 35 36 36 36 36 36 36 37 37 37 36 36 36 35 35 35 34
30 30 30 30 31 31 31 31 31 32 32 32 31 31 31 32 32 32 32 32 32 32 33 33 33 33 33 33 34 34 35 34 34 34 35 35 34 33 32 33 33 33 32

GEFSMA_500_meanwind_360.txt.gz
Wind_Speed
34 34 34 33 34 34 34 34 35 35 35 35 35 36 35 36 36 36 36 36 36 37 37 37 38 38 38 39 39 39 39 38 38 38 38 37 37 37 37 37 37 38 38
37 36 35 35 35 36 36 37 37 36 36 37 37 38 38 38 38 38 38 38 39 39 40 40 40 41 41 41 41 41 41 41 40 39 39 38 39 38 39 38 39 39 39
39 39 38 37 37 37 38 38 38 38 38 39 39 39 39 39 40 41 41 40 41 41 42 42 43 43 43 43 43 43 43 43 42 41 41 41 41 41 41 41 41 41 41
41 40 40 39 39 39 39 38 39 39 40 40 40 40 40 40 42 42 43 43 43 44 44 45 44 44 44 45 45 45 45 45 45 44 44 44 44 44 43 43 43 43 43
41 41 40 40 39 39 39 39 39 40 40 41 41 41 41 42 43 44 45 45 44 45 46 46 46 46 46 46 46 46 47 47 47 47 46 46 46 46 45 45 46 45 45
41 41 41 41 41 40 41 40 41 41 41 42 42 42 42 43 44 45 45 46 47 47 47 47 47 48 48 48 47 47 47 47 47 48 48 48 48 48 48 48 47 47 47
41 42 42 41 42 42 42 42 42 42 43 43 44 44 44 44 44 45 46 46 47 48 47 48 48 49 49 49 49 49 49 49 49 49 49 49 49 49 49 49 49 50 49
42 43 43 43 43 43 44 44 44 44 44 44 44 44 44 45 45 45 46 47 47 48 49 49 49 49 50 50 51 51 51 51 51 50 50 50 50 50 51 51 51 51 51
43 43 43 43 44 44 45 45 45 44 44 45 45 45 46 45 46 46 47 48 48 49 49 50 50 50 50 51 52 52 52 51 52 51 51 51 51 52 52 53 53 53 52
45 44 45 44 45 45 45 45 45 46 46 47 47 47 47 48 48 47 47 48 49 49 50 51 52 52 52 52 52 52 52 51 51 52 52 52 52 53 53 54 54 54 53
47 46 46 46 46 46 46 46 46 47 47 47 47 48 48 49 49 49 48 48 49 49 50 51 52 52 52 52 52 52 52 52 52 52 52 52 53 53 54 54 54 54 54
46 47 47 46 46 46 47 48 48 48 48 48 48 48 48 48 49 49 48 48 48 48 49 50 51 52 52 52 52 52 53 53 53 53 53 53 54 54 54 54 54 54 54
45 45 45 45 45 45 46 47 47 48 48 48 48 49 49 49 48 48 48 48 48 48 49 50 50 51 52 52 53 54 54 54 54 53 54 54 54 54 54 53 54 54 54
43 43 43 43 44 44 45 45 47 47 48 48 48 49 50 50 49 48 49 49 48 49 49 49 50 51 51 52 53 53 54 54 54 54 54 53 53 53 53 54 54 53 53
42 43 43 44 44 44 44 45 46 46 47 47 48 48 49 49 50 50 50 50 49 49 49 50 50 50 51 51 52 52 53 53 54 54 53 53 53 52 52 52 52 52 52
41 42 42 42 43 43 44 44 44 45 45 45 46 47 47 48 48 49 50 50 50 50 50 50 51 50 50 50 50 50 51 51 51 52 52 51 51 51 51 51 51 51 50
41 41 42 42 42 43 43 43 43 43 43 43 44 45 45 46 47 47 48 49 49 50 49 48 49 49 49 48 48 48 48 49 49 50 50 51 51 51 51 50 49 48 48
40 41 41 42 41 41 41 41 41 41 41 42 42 43 43 44 45 45 46 47 48 49 49 47 46 46 46 47 46 46 47 48 48 48 49 50 50 51 50 49 48 47 47
40 40 40 40 40 40 40 40 40 40 41 41 41 42 42 42 43 43 44 45 46 46 46 46 45 45 45 45 45 45 45 46 46 46 46 46 48 48 48 48 47 47 46
39 39 39 39 39 39 40 40 39 39 40 40 40 41 41 41 42 42 43 43 43 43 43 44 43 43 44 44 44 45 45 45 45 45 45 45 45 45 45 46 46 46 46
38 38 38 38 38 38 38 39 39 38 38 38 39 40 40 40 41 41 41 41 40 40 41 41 41 42 42 42 42 43 43 42 43 44 43 43 43 42 42 43 43 44 44
36 37 37 37 37 37 37 37 37 36 35 36 37 38 38 38 39 39 39 39 39 39 39 39 39 39 40 40 40 40 41 40 40 41 40 40 39 39 40 40 40 40 41
36 36 36 35 35 35 35 35 35 34 35 35 36 37 37 37 37 37 37 38 38 38 38 38 38 38 37 38 38 38 38 38 37 37 37 37 37 37 38 38 38 38 38
34 34 34 34 33 33 33 34 34 34 34 34 34 35 35 34 35 36 36 36 37 37 37 36 35 35 35 35 35 35 35 35 35 35 35 35 35 35 36 36 36 35 35
32 32 31 31 32 32 33 33 33 32 32 32 33 33 34 34 34 34 34 35 35 35 34 34 33 33 33 33 33 33 33 32 32 32 32 33 33 33 33 33 33 33 32
30 30 30 30 30 31 31 31 31 31 31 32 32 32 33 33 33 33 33 33 33 32 31 31 31 31 31 32 32 31 30 30 30 30 30 30 30 30 29 30 31 30 30